Voltar ao catálogo

ONEWEB-0457

AtivoComunicaçõesPO
NORAD 51647·PAYLOAD·🇬🇧 United Kingdom

Lançado Feb 10, 2022 de Guiana Space Centre

Loading…

Próximas Passagens (próximas 24 horas)

TLE

AtualizadoSource: CelesTrak SupGP

Época: Sep 14, 2026, 23:42 UTC

1 51647C 22012AB  26257.98799026 -.00002128  00000+0 -61028-2 0  2572
2 51647  87.8896  18.3920 0001516 114.4156 358.7275 13.10369701    18

Acompanhe ONEWEB-0457 em tempo real com AllMySat

Download on the App Store